格洛纳斯-720 COSMOS 1650 [GLONASS]

导读

COSMOS 1650又名格洛纳斯-720,是独联体(CIS)1985年5月17日发射的GLONASS导航卫星,由俄罗斯列舍特涅夫卫星信息系统研发运营。该卫星运行在约19130公里高度的中地球轨道,采用三轴稳定模式,可全球覆盖,为GLONASS系统提供定位导航与授时服务,支撑军事及民用领域应用,标志着GLONASS系统建设取得重要进展,目前已退役。

Basic Information
目录编号:
15697
目录名称:
COSMOS 1650 (GLONASS)
国际标识:
1985-037A
轨道中心:
EARTH
卫星名称:
格洛纳斯-720
卫星全名:
格洛纳斯-720 COSMOS 1650 [GLONASS]
卫星状态:
在轨 (已飞行15005 天)
发射日期:
1985-05-17 UTC
国别 :
俄罗斯(独联体) (CIS)
星等 :
--
Orbit Information
数据来源 国际轨道数据 AOE轨道数据
星历时间 2026-06-16T00:57:59+0800
19小时前
查看轨道信息
2026-06-15T04:00:00+0800
1天前
查看轨道信息
半长轴 25508.041km 25508.033km
偏心率 0.0032687 0.0032681
轨道倾角 64.888° 64.887°
近地点辐角 29.855° 29.892°
升交点赤经 73.340° 73.370°
平近点角 152.089° 201.862°
近地点 19046.525km 19046.533km
远地点 19213.283km 19213.259km
周期 675.733分钟 675.733分钟
每日圈数 2.131018 2.131019
Detailed Information
平衡模式:
三轴稳定
覆盖范围:
全球
运营商:
列舍特涅夫卫星信息系统
运营商所在国:
俄罗斯
制造商(研发单位):
列舍特涅夫卫星信息系统
制造商所在国:
俄罗斯
使用方式:
暂无
Satellite Introduction
格洛纳斯(GLONASS )是苏联/俄罗斯研制卫星导航系统。标准配置为24颗卫星,其中18颗卫星就能保证该系统为俄罗斯境内用户提供全部服务。该卫星已退役。
2D Orbit Map
3D Orbit Map
Orbit Altitude Analysis Chart
Orbit Inclination Analysis Chart
Orbit Comprehensive Analysis Chart
View Comprehensive Chart